Wind_Speed
72 72 72 73 76 79 83 88 92 93 91 94 100 105 110 114 116 117 116 114 110 107 103 99 96 93 91 90 89 88 87 88 88 88 89 91 92 95
71 71 73 76 80 85 90 95 100 105 104 103 108 111 113 114 113 110 106 101 96 92 89 87 85 84 83 82 82 81 80 80 80 81 82 84 86 88
71 74 77 82 87 92 97 102 107 113 116 113 112 110 107 103 98 94 92 89 86 83 81 80 78 77 77 76 75 74 73 72 72 72 74 76 78 81
74 79 83 88 93 99 104 109 113 116 118 116 107 99 92 87 83 80 80 80 79 76 74 73 71 70 68 67 66 66 65 65 65 65 66 69 70 73
80 85 90 95 100 106 111 114 115 113 109 105 97 88 82 78 76 73 72 70 69 66 64 63 62 61 60 60 59 58 57 56 57 58 60 62 65 67
86 92 97 102 108 112 115 114 110 104 98 92 88 82 78 73 71 66 61 57 54 53 54 54 54 53 53 52 49 48 48 49 49 51 53 56 60 63
92 97 103 109 113 114 112 107 101 94 89 86 82 76 70 64 59 53 48 43 41 44 45 46 47 46 45 43 41 39 39 39 41 43 46 50 54 58
98 103 109 112 112 107 102 96 91 86 82 77 70 63 56 50 45 41 38 35 32 35 40 38 41 39 37 35 33 32 32 32 33 35 38 43 48 53
104 109 111 109 104 97 91 85 79 72 67 61 54 48 44 41 37 34 32 30 30 33 35 31 33 31 29 28 29 29 29 30 32 33 35 37 42 48
108 110 107 100 93 87 80 73 64 55 50 45 42 40 37 35 33 31 29 27 28 31 32 28 27 25 25 26 26 26 27 29 30 32 33 36 38 43
106 103 97 89 82 75 68 58 49 42 38 36 36 34 33 33 32 30 27 25 23 26 29 27 24 22 22 23 23 23 24 25 26 27 28 29 32 37
98 90 83 77 70 62 54 46 38 32 29 28 29 30 30 30 30 29 28 26 24 23 25 24 22 19 16 19 19 19 20 22 23 22 20 19 21 27
88 78 70 64 57 50 43 37 32 28 25 25 25 25 25 26 27 28 29 28 25 22 21 19 17 15 12 11 13 15 18 20 19 17 11 6 8 17
77 68 60 52 45 39 34 30 27 25 24 23 22 22 22 23 25 26 27 28 25 22 19 17 14 11 10 11 12 15 18 19 18 15 10 8 12 21
67 58 50 43 37 32 28 25 23 22 21 21 21 21 21 22 23 24 26 26 24 21 19 15 13 11 11 12 14 17 18 18 19 17 15 16 20 27
55 47 41 35 31 27 24 22 22 21 20 20 20 21 21 22 22 22 22 22 21 20 17 14 12 12 13 14 16 18 19 20 20 18 16 18 21 27
45 38 32 28 26 24 23 22 21 21 21 21 21 21 21 21 21 20 20 20 19 16 14 12 12 12 14 16 17 18 19 20 20 20 18 18 21 25
36 30 26 23 22 20 19 20 21 21 21 21 21 20 20 19 19 19 19 18 17 13 11 10 11 12 15 16 18 19 19 20 20 20 19 18 20 23
29 25 23 21 19 18 19 19 20 21 20 20 20 20 19 18 17 17 17 16 14 11 9 9 10 12 13 14 15 16 18 20 20 19 19 19 20 22
25 22 20 18 18 19 19 19 20 21 21 20 20 19 18 17 16 15 15 13 12 9 7 7 8 10 12 13 13 14 16 18 19 20 20 20 20 22
21 19 18 18 18 19 19 20 20 20 20 20 19 18 17 15 15 14 13 11 10 8 6 5 7 8 10 12 12 12 14 15 18 19 20 20 21 23
17 16 17 17 19 20 20 21 21 21 20 19 18 17 16 14 14 13 11 10 8 6 5 4 6 8 10 11 11 12 13 14 16 17 18 20 21 22
15 15 16 18 20 21 22 22 21 21 19 18 17 16 15 14 13 12 10 8 6 4 3 3 5 7 9 10 11 11 12 14 15 16 17 19 21 22
Wind_Direction
304 304 304 304 304 304 304 304 303 302 301 301 300 299 298 297 295 293 291 290 289 287 286 285 283 282 280 278 276 274 271 269 266 263 260 257 254 251
306 305 305 305 305 305 305 305 305 304 303 302 301 299 298 296 294 293 292 290 289 288 287 286 285 283 281 279 277 275 272 269 265 262 259 256 253 250
306 306 306 306 307 307 306 306 305 305 304 303 301 299 297 295 293 292 292 291 291 290 289 288 286 284 282 279 277 275 273 270 266 262 258 254 251 249
307 307 307 308 308 308 307 307 306 305 304 303 302 300 298 296 294 292 291 291 291 290 289 287 285 283 282 280 278 276 273 271 267 263 258 254 251 248
308 308 309 309 309 308 308 308 307 306 304 303 303 302 300 298 296 294 292 292 291 290 288 287 285 285 283 281 279 277 275 272 269 264 259 254 250 247
310 310 310 310 310 310 309 308 307 306 305 304 303 303 302 300 298 297 295 294 292 290 288 287 287 287 286 284 282 280 277 274 270 266 261 255 251 246
311 312 312 312 312 311 311 309 308 306 305 304 304 303 303 301 300 300 300 297 294 290 288 290 291 291 290 289 288 286 282 279 274 268 262 257 251 246
313 313 313 313 313 312 310 309 308 307 306 305 305 305 305 305 306 306 305 302 298 291 292 294 294 296 295 293 293 292 291 288 283 276 269 261 253 247
314 314 315 315 313 312 311 310 309 308 307 307 307 308 309 310 311 312 311 309 304 298 297 296 295 297 297 298 297 298 299 297 292 285 275 265 255 247
316 316 316 315 314 313 312 312 312 311 310 310 310 313 315 317 318 321 320 318 313 307 307 307 301 298 298 301 303 305 305 303 298 290 279 267 255 245
318 318 317 316 315 315 315 316 317 316 315 314 315 319 322 324 326 328 330 330 325 315 315 316 311 306 303 305 311 314 314 311 305 298 288 273 257 242
319 318 317 317 318 318 319 321 322 321 319 319 320 322 325 327 330 334 337 338 334 326 320 320 319 316 313 315 322 327 329 328 323 315 301 281 254 233
320 320 319 319 319 320 322 324 326 327 326 326 326 328 331 335 337 338 339 341 343 339 336 335 334 334 339 346 352 357 356 354 349 344 334 303 225 198
322 321 321 321 321 322 325 328 330 331 333 335 337 340 341 341 341 342 344 346 350 352 351 351 354 2 11 23 28 22 14 12 16 23 39 80 128 149
322 322 323 323 324 325 327 331 334 338 341 344 346 346 346 347 347 347 348 350 354 359 3 9 20 33 42 49 48 39 38 38 41 51 72 99 121 135
322 323 323 324 326 328 332 337 341 344 347 348 348 347 347 348 349 351 353 356 359 5 13 24 41 56 63 64 57 53 55 54 55 63 81 104 123 136
324 325 325 327 329 332 336 341 344 346 347 347 347 347 347 348 351 354 358 1 6 13 24 40 61 73 77 74 67 67 66 63 64 69 81 107 128 139
326 327 329 330 333 336 339 341 343 344 344 343 344 345 347 349 351 355 0 6 11 21 36 56 75 88 90 84 80 77 71 68 71 75 84 104 126 140
329 331 333 336 339 341 342 342 343 344 343 343 344 344 346 348 351 355 0 7 15 27 46 68 92 107 106 97 91 88 79 74 76 81 89 103 121 137
332 335 338 341 342 342 343 344 344 344 344 344 344 344 345 347 351 355 360 6 14 29 53 82 106 123 124 116 107 100 92 84 84 87 92 103 116 128
334 338 341 342 344 344 345 344 344 343 343 343 344 344 345 346 348 351 356 3 13 29 52 87 117 133 139 134 126 117 107 99 95 94 97 103 114 125
340 344 346 349 349 348 346 344 343 342 341 341 342 343 344 345 346 347 348 354 6 23 48 89 126 142 149 152 146 136 124 116 110 108 108 109 113 122
348 352 354 353 352 350 347 346 344 343 341 340 341 342 344 346 346 345 343 347 356 13 43 104 143 155 160 161 158 151 143 134 127 124 123 121 119 121
Height
5614 5605 5596 5586 5576 5565 5554 5542 5531 5527 5528 5519 5502 5486 5468 5451 5435 5420 5407 5395 5386 5377 5370 5363 5357 5352 5347 5343 5341 5339 5338 5338 5339 5341 5343 5347 5353 5360
5598 5589 5579 5569 5558 5545 5533 5519 5504 5491 5489 5490 5473 5456 5438 5418 5400 5384 5370 5359 5351 5344 5337 5331 5326 5321 5316 5312 5309 5308 5307 5306 5307 5309 5311 5315 5320 5326
5581 5571 5561 5549 5538 5524 5510 5495 5479 5459 5447 5448 5437 5421 5404 5388 5372 5356 5341 5330 5323 5316 5310 5303 5298 5293 5288 5284 5281 5279 5278 5278 5278 5280 5282 5286 5290 5298
5564 5553 5541 5529 5515 5500 5484 5468 5451 5431 5410 5400 5397 5385 5371 5358 5345 5334 5321 5309 5300 5293 5286 5279 5273 5268 5264 5260 5257 5255 5253 5252 5253 5254 5257 5261 5266 5270
5545 5533 5520 5506 5491 5475 5458 5439 5421 5402 5381 5363 5356 5349 5340 5330 5318 5311 5301 5290 5280 5271 5264 5258 5252 5247 5242 5238 5235 5234 5232 5232 5231 5231 5233 5236 5241 5247
5525 5511 5496 5480 5463 5446 5428 5409 5389 5372 5355 5339 5327 5320 5312 5304 5293 5286 5280 5272 5263 5253 5246 5240 5235 5229 5225 5220 5218 5216 5214 5212 5211 5211 5212 5214 5218 5224
5505 5488 5471 5453 5434 5413 5393 5375 5358 5343 5329 5316 5306 5297 5289 5281 5273 5266 5261 5256 5249 5238 5232 5227 5220 5215 5210 5206 5203 5200 5198 5196 5195 5193 5193 5195 5198 5203
5483 5466 5447 5427 5407 5387 5367 5349 5332 5318 5305 5294 5286 5277 5271 5264 5258 5252 5246 5242 5237 5229 5220 5217 5209 5204 5200 5195 5192 5188 5186 5183 5181 5179 5178 5178 5180 5184
5458 5440 5421 5400 5379 5361 5346 5331 5317 5301 5288 5277 5270 5264 5258 5253 5248 5243 5237 5231 5225 5218 5211 5208 5201 5196 5191 5187 5183 5180 5176 5172 5169 5165 5163 5162 5162 5165
5433 5412 5392 5375 5356 5338 5325 5313 5300 5288 5277 5268 5261 5255 5249 5244 5238 5234 5228 5223 5217 5208 5201 5199 5194 5189 5185 5180 5176 5172 5168 5163 5158 5152 5148 5146 5146 5148
5411 5388 5366 5350 5336 5320 5307 5297 5288 5278 5270 5261 5254 5248 5243 5238 5232 5227 5222 5217 5211 5204 5196 5191 5187 5183 5179 5175 5170 5166 5161 5155 5148 5142 5136 5132 5130 5132
5393 5371 5350 5333 5319 5306 5296 5287 5279 5272 5265 5259 5252 5246 5240 5234 5228 5222 5216 5211 5206 5200 5192 5187 5182 5178 5175 5171 5167 5162 5156 5149 5142 5134 5128 5122 5120 5121
5369 5354 5337 5322 5310 5298 5289 5281 5274 5267 5261 5256 5250 5244 5238 5232 5226 5220 5213 5207 5202 5196 5189 5184 5179 5175 5172 5170 5166 5161 5155 5148 5140 5132 5126 5121 5118 5120
5348 5335 5324 5313 5302 5293 5285 5278 5271 5265 5259 5253 5247 5242 5236 5231 5225 5219 5212 5205 5199 5193 5187 5183 5179 5175 5172 5170 5167 5163 5157 5150 5143 5137 5131 5128 5126 5129
5334 5322 5313 5304 5296 5289 5282 5275 5269 5263 5257 5251 5246 5241 5235 5230 5224 5218 5212 5205 5199 5193 5188 5184 5181 5178 5175 5173 5170 5166 5162 5156 5151 5146 5142 5140 5141 5145
5325 5315 5306 5298 5291 5285 5279 5273 5267 5261 5255 5250 5245 5240 5234 5229 5224 5218 5213 5207 5201 5195 5191 5187 5184 5182 5179 5177 5174 5171 5168 5164 5160 5156 5154 5154 5156 5160
5317 5309 5301 5294 5288 5282 5276 5270 5265 5259 5254 5249 5244 5239 5234 5228 5223 5218 5213 5207 5202 5198 5194 5191 5188 5186 5185 5183 5181 5178 5175 5172 5169 5167 5166 5167 5169 5174
5310 5303 5297 5291 5286 5280 5275 5269 5264 5259 5253 5248 5243 5238 5233 5228 5223 5218 5214 5209 5204 5201 5197 5195 5193 5192 5191 5190 5188 5186 5183 5181 5179 5178 5177 5178 5181 5185
5305 5299 5294 5288 5283 5278 5273 5268 5263 5257 5252 5247 5242 5237 5232 5228 5223 5219 5215 5211 5207 5203 5201 5199 5197 5196 5196 5195 5195 5193 5191 5189 5188 5187 5188 5188 5190 5194
5302 5297 5291 5287 5282 5277 5272 5266 5261 5256 5251 5245 5240 5236 5231 5227 5223 5219 5216 5212 5209 5206 5204 5202 5201 5201 5200 5200 5200 5200 5199 5198 5197 5196 5197 5198 5200 5202
5299 5295 5290 5285 5280 5275 5270 5265 5259 5254 5249 5244 5239 5235 5230 5226 5223 5220 5216 5213 5210 5208 5206 5205 5204 5204 5204 5205 5205 5206 5206 5205 5205 5205 5206 5207 5209 5212
5298 5293 5289 5284 5279 5274 5268 5263 5257 5252 5247 5242 5238 5233 5229 5226 5222 5219 5216 5214 5211 5209 5208 5207 5207 5207 5208 5209 5209 5210 5211 5212 5213 5214 5215 5217 5218 5221
5297 5293 5288 5283 5278 5272 5266 5261 5255 5250 5245 5241 5236 5232 5228 5225 5221 5219 5216 5214 5211 5210 5209 5208 5208 5209 5210 5211 5213 5214 5216 5217 5219 5221 5222 5224 5226 5229